| time (UTC) | temp F | wind direction | speed MPH | gust MPH | rain 1hr in | rain 24hr in | rain mn in | humidity % | barometer mb |
| 20260502163108 | 66 | 334 | 3.0 | 9.0 | 0.00 | 0.32 | 0.01 | 42 | 1020.0 |
| 20260502163006 | 66 | 304 | 3.0 | 9.0 | 0.00 | 0.32 | 0.01 | 53 | 1020.3 |
| 20260502161559 | 66 | 0 | 2.0 | 7.0 | 0.00 | 0.32 | 0.01 | 45 | 1020.0 |
| 20260502161502 | 66 | 292 | 1.0 | 6.0 | 0.00 | 0.32 | 0.01 | 55 | 1020.4 |
| 20260502151600 | 62 | 113 | 3.0 | 8.0 | 0.00 | 0.41 | 0.01 | 61 | 1020.4 |
| 20260502151557 | 62 | 113 | 2.0 | 8.0 | 0.00 | 0.41 | 0.01 | 49 | 1020.0 |
| 20260502150112 | 62 | 110 | 0.0 | 9.0 | 0.00 | 0.41 | 0.01 | 50 | 1020.0 |
| 20260502150103 | 62 | 38 | 1.0 | 9.0 | 0.00 | 0.41 | 0.01 | 62 | 1020.4 |
| 20260502130108 | 54 | 0 | 0.0 | 4.0 | 0.00 | 0.66 | 0.01 | 58 | 1018.6 |
| 20260502123100 | 50 | 0 | 0.0 | 0.0 | 0.00 | 0.82 | 0.01 | 58 | 1018.0 |
| 20260502123014 | 50 | 360 | 0.0 | 0.0 | 0.00 | 0.82 | 0.01 | 70 | 1018.4 |
| 20260502121559 | 48 | 0 | 0.0 | 0.0 | 0.00 | 0.82 | 0.01 | 58 | 1017.8 |
| 20260502121512 | 48 | 360 | 0.0 | 0.0 | 0.00 | 0.82 | 0.01 | 69 | 1018.2 |
| 20260502114557 | 47 | 0 | 0.0 | 0.0 | 0.00 | 0.87 | 0.01 | 57 | 1017.2 |
| 20260502114511 | 47 | 360 | 0.0 | 0.0 | 0.00 | 0.87 | 0.01 | 69 | 1017.6 |
| 20260502113053 | 47 | 0 | 0.0 | 0.0 | 0.00 | 0.87 | 0.01 | 57 | 1017.0 |
| 20260502113004 | 47 | 360 | 0.0 | 0.0 | 0.00 | 0.87 | 0.01 | 69 | 1017.4 |
| 20260502111555 | 47 | 0 | 0.0 | 0.0 | 0.00 | 0.87 | 0.01 | 57 | 1016.8 |
| 20260502111501 | 47 | 360 | 0.0 | 0.0 | 0.00 | 0.87 | 0.01 | 69 | 1017.2 |
| 20260502110103 | 48 | 360 | 0.0 | 0.0 | 0.00 | 0.87 | 0.01 | 69 | 1017.2 |
| 20260502110055 | 48 | 0 | 0.0 | 0.0 | 0.00 | 0.87 | 0.01 | 57 | 1016.7 |
| 20260502104558 | 48 | 360 | 0.0 | 0.0 | 0.00 | 0.87 | 0.01 | 68 | 1016.8 |
| 20260502104552 | 48 | 0 | 0.0 | 0.0 | 0.00 | 0.87 | 0.01 | 57 | 1016.4 |
| 20260502103101 | 49 | 360 | 0.0 | 0.0 | 0.00 | 0.87 | 0.01 | 68 | 1016.7 |
| 20260502103055 | 49 | 0 | 0.0 | 0.0 | 0.00 | 0.87 | 0.01 | 57 | 1016.3 |
| 20260502101618 | 50 | 360 | 0.0 | 0.0 | 0.00 | 0.87 | 0.01 | 68 | 1016.6 |
| 20260502101555 | 50 | 0 | 0.0 | 0.0 | 0.00 | 0.87 | 0.01 | 57 | 1016.2 |
| 20260502100114 | 50 | 360 | 0.0 | 0.0 | 0.00 | 0.87 | 0.01 | 68 | 1016.5 |
| 20260502080106 | 53 | 360 | 1.0 | 2.0 | 0.00 | 0.86 | 0.00 | 57 | 1015.6 |
| 20260502071535 | 53 | 360 | 1.0 | 3.0 | 0.00 | 0.86 | 0.00 | 68 | 1016.1 |
| 20260502070054 | 53 | 0 | 0.0 | 0.0 | 0.00 | 0.86 | 0.00 | 57 | 1015.6 |
| 20260502070045 | 53 | 360 | 0.0 | 0.0 | 0.00 | 0.86 | 0.00 | 68 | 1016.1 |
| 20260502064555 | 53 | 0 | 0.0 | 0.0 | 0.00 | 0.86 | 0.00 | 57 | 1015.5 |
| 20260502064533 | 53 | 360 | 0.0 | 0.0 | 0.00 | 0.86 | 0.00 | 68 | 1016.1 |
| 20260502063114 | 53 | 0 | 0.0 | 0.0 | 0.00 | 0.86 | 0.00 | 57 | 1015.6 |
| 20260502063036 | 53 | 360 | 0.0 | 0.0 | 0.00 | 0.86 | 0.00 | 68 | 1016.1 |
| 20260502061554 | 53 | 0 | 0.0 | 0.0 | 0.00 | 0.86 | 0.00 | 56 | 1015.4 |
| 20260502061531 | 53 | 360 | 0.0 | 0.0 | 0.00 | 0.86 | 0.00 | 68 | 1015.8 |
| 20260502060058 | 53 | 0 | 0.0 | 0.0 | 0.00 | 0.86 | 0.00 | 57 | 1015.2 |
| 20260502060032 | 53 | 360 | 0.0 | 0.0 | 0.00 | 0.86 | 0.00 | 68 | 1015.6 |
| 20260502054606 | 53 | 0 | 0.0 | 0.0 | 0.00 | 0.86 | 0.00 | 56 | 1015.4 |
| 20260502054527 | 53 | 360 | 0.0 | 0.0 | 0.00 | 0.86 | 0.00 | 68 | 1015.8 |
| 20260502053100 | 53 | 0 | 0.0 | 0.0 | 0.00 | 0.86 | 0.00 | 56 | 1015.5 |
| 20260502053023 | 53 | 360 | 0.0 | 0.0 | 0.00 | 0.86 | 0.00 | 68 | 1015.9 |
| 20260502051558 | 53 | 0 | 0.0 | 0.0 | 0.00 | 0.86 | 0.00 | 56 | 1015.4 |
| 20260502051524 | 53 | 360 | 0.0 | 0.0 | 0.00 | 0.86 | 0.00 | 68 | 1015.9 |
| 20260502050058 | 53 | 0 | 0.0 | 0.0 | 0.00 | 0.86 | 0.00 | 56 | 1015.3 |
| 20260502050013 | 53 | 360 | 0.0 | 0.0 | 0.00 | 0.87 | 0.86 | 68 | 1015.7 |
| 20260502044553 | 53 | 0 | 0.0 | 0.0 | 0.00 | 0.87 | 0.86 | 56 | 1015.4 |
| 20260502044513 | 53 | 360 | 0.0 | 0.0 | 0.00 | 0.87 | 0.86 | 68 | 1015.8 |
| 20260502043056 | 53 | 0 | 0.0 | 2.0 | 0.00 | 0.87 | 0.86 | 56 | 1015.6 |
| 20260502043015 | 53 | 360 | 0.0 | 2.0 | 0.00 | 0.87 | 0.86 | 68 | 1016.0 |
| 20260502041555 | 53 | 360 | 0.0 | 2.0 | 0.00 | 0.87 | 0.86 | 56 | 1015.7 |
| 20260502041512 | 53 | 360 | 0.0 | 2.0 | 0.00 | 0.87 | 0.86 | 68 | 1016.1 |
| 20260502040058 | 52 | 360 | 0.0 | 3.0 | 0.00 | 0.87 | 0.86 | 56 | 1015.5 |
| 20260502040011 | 52 | 360 | 0.0 | 3.0 | 0.00 | 0.87 | 0.86 | 68 | 1015.8 |
| 20260502034556 | 52 | 0 | 0.0 | 2.0 | 0.00 | 0.87 | 0.86 | 56 | 1015.8 |
| 20260502034512 | 52 | 360 | 0.0 | 2.0 | 0.00 | 0.87 | 0.86 | 68 | 1016.1 |
| 20260502033055 | 52 | 0 | 0.0 | 0.0 | 0.00 | 0.87 | 0.86 | 56 | 1015.3 |
| 20260502033011 | 52 | 360 | 0.0 | 0.0 | 0.00 | 0.87 | 0.86 | 67 | 1015.7 |
| 20260502031556 | 52 | 0 | 0.0 | 0.0 | 0.00 | 0.87 | 0.86 | 56 | 1015.8 |
| 20260502031510 | 52 | 360 | 0.0 | 0.0 | 0.00 | 0.87 | 0.86 | 68 | 1016.3 |
| 20260502030109 | 52 | 360 | 1.0 | 2.0 | 0.00 | 0.87 | 0.86 | 68 | 1016.3 |
| 20260502030054 | 52 | 360 | 0.0 | 2.0 | 0.00 | 0.87 | 0.86 | 56 | 1015.9 |
| 20260502024603 | 52 | 360 | 0.0 | 3.0 | 0.01 | 0.88 | 0.86 | 56 | 1015.5 |
| 20260502024521 | 52 | 360 | 0.0 | 3.0 | 0.01 | 0.88 | 0.86 | 68 | 1015.8 |
| 20260502023052 | 51 | 0 | 0.0 | 2.0 | 0.01 | 0.88 | 0.86 | 56 | 1015.1 |
| 20260502023007 | 52 | 360 | 0.0 | 2.0 | 0.01 | 0.88 | 0.86 | 68 | 1015.4 |
| 20260502021559 | 51 | 0 | 0.0 | 0.0 | 0.01 | 0.88 | 0.86 | 56 | 1015.3 |
| 20260502021505 | 51 | 360 | 0.0 | 0.0 | 0.01 | 0.88 | 0.86 | 67 | 1015.5 |
| 20260502020105 | 51 | 0 | 0.0 | 0.0 | 0.02 | 0.88 | 0.86 | 56 | 1015.5 |
| 20260502020005 | 51 | 360 | 0.0 | 0.0 | 0.02 | 0.90 | 0.86 | 67 | 1015.7 |
| 20260502014557 | 51 | 0 | 0.0 | 2.0 | 0.01 | 0.89 | 0.85 | 56 | 1015.2 |
| 20260502014510 | 51 | 360 | 0.0 | 1.0 | 0.01 | 0.89 | 0.85 | 67 | 1015.5 |
| 20260502013103 | 50 | 0 | 1.0 | 4.0 | 0.01 | 0.89 | 0.85 | 56 | 1014.9 |
| 20260502013003 | 50 | 360 | 1.0 | 4.0 | 0.01 | 0.89 | 0.85 | 67 | 1015.2 |
| 20260502011603 | 50 | 360 | 0.0 | 8.0 | 0.01 | 0.89 | 0.85 | 56 | 1014.4 |
| 20260502011502 | 50 | 360 | 0.0 | 8.0 | 0.01 | 0.89 | 0.85 | 67 | 1014.8 |
| 20260502010003 | 50 | 360 | 2.0 | 5.0 | 0.00 | 0.89 | 0.84 | 67 | 1014.2 |
| 20260502004612 | 50 | 360 | 1.0 | 9.0 | 0.02 | 0.89 | 0.84 | 67 | 1014.4 |
| 20260502004603 | 51 | 360 | 1.0 | 9.0 | 0.02 | 0.89 | 0.84 | 56 | 1014.0 |
| 20260502003059 | 51 | 360 | 3.0 | 13.0 | 0.04 | 0.89 | 0.84 | 56 | 1013.3 |
| 20260502003057 | 51 | 360 | 4.0 | 13.0 | 0.04 | 0.89 | 0.84 | 67 | 1013.6 |
| 20260502001559 | 52 | 360 | 1.0 | 4.0 | 0.05 | 0.89 | 0.84 | 67 | 1013.6 |
| 20260502000100 | 51 | 78 | 2.0 | 7.0 | 0.06 | 0.89 | 0.84 | 55 | 1012.7 |
| 20260502000056 | 51 | 76 | 2.0 | 6.0 | 0.06 | 0.89 | 0.84 | 67 | 1013.1 |
| 20260501234558 | 52 | 74 | 1.0 | 8.0 | 0.05 | 0.87 | 0.82 | 67 | 1013.4 |
| 20260501234556 | 52 | 74 | 3.0 | 8.0 | 0.05 | 0.87 | 0.82 | 55 | 1013.1 |
| 20260501233105 | 52 | 0 | 3.0 | 7.0 | 0.04 | 0.85 | 0.80 | 55 | 1013.2 |
| 20260501233054 | 52 | 117 | 1.0 | 7.0 | 0.04 | 0.85 | 0.80 | 67 | 1013.6 |
| 20260501231639 | 53 | 0 | 0.0 | 5.0 | 0.04 | 0.84 | 0.79 | 55 | 1013.4 |
| 20260501231600 | 53 | 360 | 0.0 | 5.0 | 0.04 | 0.84 | 0.79 | 67 | 1013.7 |
| 20260501230106 | 53 | 360 | 0.0 | 5.0 | 0.05 | 0.83 | 0.78 | 55 | 1013.7 |
| 20260501230051 | 53 | 68 | 0.0 | 3.0 | 0.05 | 0.83 | 0.78 | 67 | 1014.0 |
| 20260501224611 | 53 | 0 | 1.0 | 6.0 | 0.07 | 0.82 | 0.77 | 55 | 1013.2 |
| 20260501224552 | 53 | 71 | 1.0 | 5.0 | 0.07 | 0.82 | 0.77 | 66 | 1013.5 |
| 20260501223106 | 53 | 93 | 0.0 | 8.0 | 0.07 | 0.81 | 0.76 | 66 | 1013.2 |
| 20260501223100 | 53 | 0 | 0.0 | 8.0 | 0.07 | 0.81 | 0.76 | 55 | 1012.8 |
| 20260501221608 | 53 | 0 | 0.0 | 8.0 | 0.09 | 0.80 | 0.75 | 55 | 1012.9 |
| 20260501221547 | 53 | 68 | 0.0 | 8.0 | 0.09 | 0.80 | 0.75 | 66 | 1013.2 |
| 20260501220058 | 54 | 87 | 0.0 | 2.0 | 0.08 | 0.78 | 0.73 | 54 | 1012.4 |
| 20260501220047 | 54 | 88 | 1.0 | 8.0 | 0.07 | 0.77 | 0.72 | 66 | 1012.8 |
| 20260501214559 | 54 | 0 | 0.0 | 3.0 | 0.06 | 0.77 | 0.70 | 54 | 1012.8 |
| 20260501214547 | 54 | 338 | 0.0 | 3.0 | 0.06 | 0.77 | 0.70 | 66 | 1013.1 |
| 20260501213100 | 54 | 0 | 0.0 | 6.0 | 0.04 | 0.75 | 0.68 | 54 | 1012.8 |
| 20260501213054 | 54 | 98 | 0.0 | 6.0 | 0.04 | 0.75 | 0.68 | 65 | 1013.2 |
| 20260501211612 | 54 | 0 | 1.0 | 6.0 | 0.02 | 0.73 | 0.66 | 54 | 1012.9 |
| 20260501211547 | 54 | 21 | 1.0 | 4.0 | 0.02 | 0.73 | 0.66 | 65 | 1013.3 |
| 20260501210049 | 54 | 5 | 2.0 | 6.0 | 0.01 | 0.72 | 0.65 | 65 | 1013.2 |
| 20260501204601 | 54 | 0 | 0.0 | 8.0 | 0.00 | 0.73 | 0.64 | 53 | 1012.4 |
| 20260501204545 | 54 | 312 | 0.0 | 8.0 | 0.00 | 0.73 | 0.64 | 65 | 1012.6 |
| 20260501203144 | 54 | 9 | 2.0 | 6.0 | 0.00 | 0.73 | 0.64 | 65 | 1012.3 |
| 20260501203100 | 54 | 352 | 3.0 | 9.0 | 0.00 | 0.73 | 0.64 | 53 | 1012.0 |
| 20260501201556 | 55 | 96 | 5.0 | 12.0 | 0.00 | 0.73 | 0.64 | 53 | 1011.8 |
| 20260501201546 | 55 | 90 | 5.0 | 12.0 | 0.00 | 0.73 | 0.64 | 65 | 1011.9 |
| 20260501200057 | 54 | 78 | 6.0 | 14.0 | 0.00 | 0.73 | 0.64 | 54 | 1010.8 |
| 20260501200043 | 54 | 79 | 6.0 | 14.0 | 0.00 | 0.73 | 0.64 | 66 | 1011.1 |
| 20260501194606 | 55 | 76 | 5.0 | 14.0 | 0.00 | 0.88 | 0.64 | 55 | 1010.7 |
| 20260501194542 | 55 | 83 | 6.0 | 14.0 | 0.00 | 0.88 | 0.64 | 67 | 1011.0 |
| 20260501193054 | 55 | 360 | 7.0 | 20.0 | 0.00 | 0.88 | 0.64 | 56 | 1010.2 |
| 20260501193039 | 55 | 360 | 7.0 | 20.0 | 0.00 | 0.88 | 0.64 | 67 | 1010.6 |
| 20260501191558 | 54 | 104 | 5.0 | 19.0 | 0.01 | 0.88 | 0.64 | 56 | 1010.9 |
| 20260501191536 | 54 | 79 | 5.0 | 13.0 | 0.01 | 0.88 | 0.64 | 67 | 1011.2 |
| 20260501190054 | 54 | 360 | 4.0 | 12.0 | 0.01 | 0.88 | 0.64 | 56 | 1011.9 |
| 20260501190037 | 54 | 360 | 3.0 | 12.0 | 0.01 | 0.88 | 0.64 | 67 | 1012.2 |
| 20260501184555 | 54 | 65 | 4.0 | 13.0 | 0.02 | 1.24 | 0.64 | 56 | 1012.5 |
| 20260501184552 | 54 | 106 | 5.0 | 13.0 | 0.02 | 1.24 | 0.64 | 68 | 1012.7 |
| 20260501183054 | 54 | 109 | 3.0 | 12.0 | 0.02 | 1.24 | 0.64 | 56 | 1012.9 |
| 20260501183031 | 54 | 40 | 4.0 | 12.0 | 0.02 | 1.24 | 0.64 | 68 | 1013.2 |
| 20260501181557 | 54 | 350 | 2.0 | 12.0 | 0.03 | 1.23 | 0.63 | 56 | 1013.3 |
| 20260501181528 | 54 | 80 | 2.0 | 12.0 | 0.03 | 1.23 | 0.63 | 68 | 1013.6 |
| 20260501180026 | 54 | 62 | 3.0 | 10.0 | 0.03 | 1.23 | 0.63 | 68 | 1013.6 |
| 20260501174553 | 55 | 144 | 1.0 | 12.0 | 0.03 | 1.22 | 0.62 | 56 | 1013.7 |
| 20260501174525 | 55 | 9 | 2.0 | 12.0 | 0.03 | 1.22 | 0.62 | 68 | 1014.2 |
| 20260501173054 | 55 | 91 | 3.0 | 12.0 | 0.04 | 1.22 | 0.62 | 56 | 1013.8 |
| 20260501173024 | 55 | 90 | 3.0 | 12.0 | 0.05 | 1.22 | 0.62 | 68 | 1014.2 |